Regional Weather Roundup
Issued by NWS Wilmington, NC

Home | Current Version | Previous Version | Text Only | Print | Product List | Glossary On
Versions: 1 2 3 4 5 6 7 8 9 10 11 12 13 14 15 16 17 18 19 20 21 22 23 24 25 26 27
000
ASUS42 KILM 130913
RWRILM
RWRILM
REGIONAL HOURLY WEATHER ROUNDUP
NATIONAL WEATHER SERVICE WILMINGTON NC
400 AM EST WED DEC 13 2017

NOTE: "FAIR" INDICATES FEW OR NO CLOUDS BELOW 12,000 FEET WITH NO
SIGNIFICANT WEATHER AND/OR OBSTRUCTIONS TO VISIBILITY.

...............WFO WILMINGTON COUNTY WARNING AREA...............

......COASTAL NC AND SC COUNTIES......

CITY           SKY/WX    TMP DP  RH WIND       PRES   REMARKS
WILMINGTON     CLEAR     32  14  47 NW10      29.91R WCI  24
N MYRTLE BEACH CLEAR     34  18  52 NW6       29.92R WCI  29
MYRTLE BEACH   CLEAR     35  19  52 N8        29.94R WCI  29

......INLAND NC AND SC COUNTIES.......

CITY           SKY/WX    TMP DP  RH WIND       PRES   REMARKS
LUMBERTON      CLEAR     28  15  58 NW7       29.92R WCI  21
ELIZABETHTOWN  NOT AVBL
WHITEVILLE     CLEAR     31  18  57 CALM      29.92R
FLORENCE       CLEAR     27  21  78 NW3       29.95R
DARLINGTON     CLEAR     26  21  81 CALM      29.95R
KINGSTREE      FAIR      30  23  74 CALM      29.95R
HARTSVILLE     FAIR      27  21  80 CALM      29.93R
BENNETTSVILLE    N/A     30  23  74 CALM      29.94
CONWAY         FAIR      32  23  69 CALM      29.94R
GEORGETOWN     FAIR      34  21  60 NW6       29.94R WCI  29
MARION         FAIR      30  19  64 CALM      29.94R

....................REST OF NORTH CAROLINA......................

.........EASTERN NC.........

CITY           SKY/WX    TMP DP  RH WIND       PRES   REMARKS
CAPE HATTERAS  CLEAR     33  14  45 NW17G30   29.83R WCI  22
JACKSONVILLE   CLEAR     29  17  61 VRB5      29.90R WCI  24
MOREHEAD CITY  CLEAR     31  18  58 NW14      29.87R WCI  21
KENANSVILLE    CLEAR     30  12  47 NW6       29.90R WCI  24
NEW BERN       CLEAR     29  13  51 NW9       29.89R WCI  20
ELIZABETH CITY CLEAR     25   7  46 NW7       29.83R WCI  17

.........CENTRAL NC.........

CITY           SKY/WX    TMP DP  RH WIND       PRES   REMARKS
RALEIGH DURHAM CLEAR     24  10  55 SW5       29.89R WCI  18
ROCKY MOUNT    CLEAR     28   9  44 NW9       29.88R WCI  19
ROANOKE RAPIDS NOT AVBL
FAYETTEVILLE   CLEAR     30  15  53 W5        29.91R WCI  25
HOFFMAN        CLEAR     25  12  57 NW3       29.91R

.........WESTERN NC.........

CITY           SKY/WX    TMP DP  RH WIND       PRES   REMARKS
CHARLOTTE      CLEAR     28   5  37 NW8       29.91R WCI  20
GREENSBORO     CLEAR     25   7  46 NW10      29.86R WCI  15
HICKORY        NOT AVBL
BOONE          NOT AVBL
ASHEVILLE      NOT AVBL

.....................REST OF SOUTH CAROLINA.....................

.........EASTERN SC.........

CITY           SKY/WX    TMP DP  RH WIND       PRES   REMARKS
CHARLESTON     CLEAR     37  26  64 NW7       29.95R WCI  32
BEAUFORT MCAS  CLEAR     40  26  57 NW9       29.97R WCI  34
HILTON HEAD    CLEAR     41  25  52 VRB7G17   29.98R

.........CENTRAL SC.........

CITY           SKY/WX    TMP DP  RH WIND       PRES   REMARKS
COLUMBIA       CLEAR     33  22  63 W8        29.95R WCI  26
ORANGEBURG     CLEAR     35  20  54 NW6       29.95R WCI  30
SUMTER SHAW    CLEAR     34  13  42 NW8       29.93R WCI  27

.........WESTERN SC.........

CITY           SKY/WX    TMP DP  RH WIND       PRES   REMARKS
GREENVILLE     NOT AVBL
ROCK HILL        N/A    N/A N/A N/A MISG        N/A
ANDERSON       CLEAR     32  12  43 W9        29.93S WCI  24
CLEMSON        NOT AVBL
GREENWOOD      CLEAR     30  14  51 W6        29.96R WCI  24


...................COASTAL AND OFFSHORE REPORTS..................

................LOCAL PIERS AND NC RESERVE................


STATION/POSITION TIME  SKY/WX   TEMP    WIND        PRES    VSBY
                                AIR SEA DIR/SP/G
                 (UTC)          (F)     (DEG/KT/KT) (MB)    (MI)
JOHNY MRCER PIER 0842            34 57  310/  7/ 10 1012.4R
NC RESRV MASNBRO 0745            34     220/  1     1011.0
OCEAN CREST PIER NOT AVBL
SPRINGMAID  PIER 0842                               1016.1R


................COASTAL AND OFFSHORE BUOYS................


STATION/POSITION TIME  SKY/WX   TEMP    WIND        PRES    VSBY
                                AIR SEA DIR/SP/G
                 (UTC)          (F)     (DEG/KT/KT) (MB)    (MI)
DIMNDSHOAL 41025 0900            39 73  310/ 31/ 41 1009.2
CAPE LOOKOUT     0900                   340/ 20/ 23 1011.5R
ONSLOW BAY 41036 NOT AVBL
ONSLOW BAY 41064 0808            40 63  360/ 19/ 25 1011.3R
ONSLOW BAY 41159 0900               63                N/A
WVE H/P(F/S)=  7/ 6

MASNBO INL 41110 0859               57                N/A
WVE H/P(F/S)=  2/ 8

WILM HARBR 41108 0900               58                N/A
WVE H/P(F/S)=  5/ 8

27SE WRITB 41037 0808            42 65  320/ 23/ 37 1010.9R
FRYING PAN 41013 0850            43 63  330/ 23/ 31 1011.2R
WVE H/P(F/S)=  8/ 6

SUNST NRSH 41024 0808            38     340/ 10/ 14 1012.3R
CAPRS NRSH 41029 0808            41 56  320/ 16/ 19 1012.9R
EDISTO     41004 0850            48 74  330/ 17/ 25 1012.4R
WVE H/P(F/S)=  7/ 7



..........OFFSHORE BUOYS BEYOND 100 NM OFFSHORE...........
.....IN A TRIANGLE---HAT TO BERMUDA TO BAHAMAS TO HAT.....


STATION/POSITION TIME  SKY/WX   TEMP    WIND        PRES    VSBY
                                AIR SEA DIR/SP/G
                 (UTC)          (F)     (DEG/KT/KT) (MB)    (MI)
150E HAT   41001 NOT AVBL
W BERMUDA  41048 0850            70 74  270/ 31/ 39 1002.5R
WVE H/P(F/S)= 18/10

ATLANTIC S 41049 0850            77 77  200/ 21/ 25 1009.9F
WVE H/P(F/S)=  6/ 8 SWL H/P/D(F/S/D)=  3/ 8

E BAHAMAS  41046 0850            75 79  310/ 16/ 21 1011.9R
WVE H/P(F/S)=  4/ 8 SWL H/P/D(F/S/D)=  3/ 10/ 8

NE BAHAMAS 41047 0850            73     270/ 21/ 27 1010.2R
WVE H/P(F/S)=  7/ 6 SWL H/P/D(F/S/D)=  2/160/12

120E CANVRL41010 NOT AVBL

END




USA.gov is the U.S. government's official web portal to all federal, state and local government web resources and services.